Location: Poughquag
(41.6090°N, 73.6820°W)
Time: 11:52:12
(UTC-05:00)

deb Explorer IX - Pass Details

Date: 11 December 2023
Orbit: 516 x 916 km, 38.7° (Epoch: 29 February)

Event Time Altitude Azimuth Distance (km) Brightness Sun altitude
Rises 18:37:45 0° 239° (WSW) 2,664 ? -24.1°
Reaches altitude 10° 18:40:07 10° 230° (SW) 1,749 ? -24.5°
Enters shadow 18:42:50 31° 194° (SSW) 913 ? -25.0°
